Location: Kerguer�zec
(48.4509°N, 4.7600°W)
Time: 00:14:42
(UTC+00:00)

USA 186 - Pass Details

Date: 09 April 2020
Orbit: 261 x 446 km, 96.9° (Epoch: 04 June)

Event Time Altitude Azimuth Distance (km) Brightness Sun altitude
Rises 18:11:01 0° 102° (ESE) 2,379 4.9 7.5°
Enters shadow 19:11:40 -64° 167° (SSE) 11,830 9.0 -2.4°
Maximum altitude 19:44:52 75° 77° (ENE) 433 1.7 -7.6°
